Погода в Новоселовке

Россия / Саратовская область     51°56′47″N   44°16′11″E
темп.,
°C
ветер,
м/с
пор.,
м/с
влажн.,
%
обл.,
%
осадки,
мм/ч
давл.,
гПа
погр.,
м
12 апреля, пн
пн1201:00+6св4895100 0.0 1028120
04:00+6св479495 0.0 1028108
07:00+6всв4893100 0.0 1029120
10:00+14в5767100 0.0 1029265
13:00+19вюв6945100 0.0 1029719
16:00+20вюв793961 0.0 10291279
19:00+17в495173 0.0 1029188
22:00+12вюв4117051 0.0 1030194
13 апреля, вт
вт1301:00+10вюв4136526 0.0 1031221
04:00+8вюв4126894 0.0 1031189
07:00+7вюв412709 0.0 1031177
10:00+14юв7114653 0.0 1031447
13:00+18юв78315 0.0 1030939
16:00+19вюв782948 0.0 10291169
19:00+16вюв4942100 0.0 1028206
22:00+11вюв49597 0.0 1029143
14 апреля, ср
ср1401:00+9вюв4126585 0.0 1028193
04:00+7вюв410696 0.0 1027155
07:00+6вюв411703 0.0 1026185
10:00+13вюв610470 0.0 1025430
13:00+17вюв78340 0.0 1024984
16:00+18юв67313 0.0 10221425
19:00+15вюв474386 0.0 1021183
22:00+11вюв475913 0.0 1022111
15 апреля, чт
чт1501:00+9вюв49675 0.0 1021131
04:00+8вюв477695 0.0 1021107
07:00+8вюв4779100 0.0 1020115
10:00+14вюв5857100 0.0 1019337
13:00+18вюв684390 0.0 1018946
16:00+20юв673753 0.0 10171536
19:00+17вюв3449100 0.0 101672
22:00+13вюв4760100 0.0 101692
16 апреля, пт
пт1601:00+12вюв356591 0.0 101671
04:00+10юв336480 0.0 101618
07:00+10вюв336683 0.0 101627
10:00+16юв345060 0.0 1016378
13:00+19юв333992 0.0 10161692
16:00+19вюв2236100 0.0 10162227
19:00+18всв2244100 0.0 101633
22:00+15в225399 0.0 101734